x

9441102 - Westport, Wa (wptw1) Weather Station

7:30 - Tue 28th Mar 2017 All times are PDT. -7 hours from GMT.

  • Wind
    18mph, 26mph gusts
  • Sea Temp 49°f
  • Ar Temp 49°f
  • Sea Pressure 1020.3mb
  • 9441102 - Westport, Wa
  • 9441102 - Westport, Wa

More Historic Weather Station data

Upgrade to MSW Pro to gain access to the past 30 days of data for over 8000 Wavebouys and Weather Stations around the globe.

Join Pro

Comparision Forecast

View Surf forecast
   
Ter 03/28 7:30 18 26 mph 1020.3mb 49f 49f
7:24 20 29 mph 1020.3mb 49f 49f
7:18 17 26 mph 1020.3mb 49f 49f
7:12 18 26 mph 1020.3mb 49f 49f
7:06 18 28 mph 1020.5mb 50f 49f
7:00 17 26 mph 1020.5mb 49f 49f
6:36 17 28 mph 1020.7mb 50f 48f
6:30 16 28 mph 1020.8mb 50f 48f
6:24 18 30 mph 1020.8mb 50f 48f
6:18 21 31 mph 1020.8mb 50f 48f
6:12 18 25 mph 1020.9mb 50f 48f
6:06 18 32 mph 1020.8mb 50f 48f
6:00 23 33 mph 1020.7mb 50f 49f
5:36 21 26 mph 1020.7mb 50f 49f
5:30 23 32 mph 1020.7mb 50f 49f
5:24 22 31 mph 1020.7mb 50f 49f
5:18 21 28 mph 1020.8mb 50f 48f
5:12 18 28 mph 1020.9mb 50f 48f
5:06 17 25 mph 1020.9mb 50f 48f
5:00 20 31 mph 1020.8mb 50f 48f
4:36 21 28 mph 1021.2mb 50f 49f
4:30 20 31 mph 1021.3mb 50f 49f
4:24 20 29 mph 1021.4mb 50f 49f
4:18 21 30 mph 1021.4mb 50f 48f
4:12 21 30 mph 1021.3mb 50f 48f
4:06 20 29 mph 1021.4mb 50f 48f
4:00 21 29 mph 1021.4mb 50f 48f
3:36 21 30 mph 1021.4mb 50f 48f
3:30 18 25 mph 1021.4mb 50f 48f
3:24 21 31 mph 1021.6mb 50f 48f
3:18 23 31 mph 1021.7mb 50f 48f
3:12 23 32 mph 1021.7mb 50f 48f
3:06 22 31 mph 1021.8mb 50f 48f
3:00 22 30 mph 1021.9mb 50f 48f
2:36 22 31 mph 1021.8mb 50f 48f
2:30 23 33 mph 1021.8mb 50f 48f
2:24 23 31 mph 1022mb 50f 48f
2:18 23 31 mph 1022mb 50f 48f
2:12 21 32 mph 1022mb 50f 48f
2:06 23 30 mph 1021.9mb 50f 48f
2:00 21 30 mph 1021.7mb 50f 48f
1:36 20 29 mph 1021.9mb 50f 48f
1:30 20 29 mph 1021.8mb 50f 48f
1:24 22 29 mph 1021.8mb 50f 48f
1:18 17 29 mph 1021.9mb 50f 48f
1:12 22 28 mph 1022mb 50f 48f
1:06 20 28 mph 1022mb 50f 48f
1:00 20 28 mph 1022.1mb 50f 48f
12:36 20 25 mph 1022.4mb 50f 48f
12:30 20 29 mph 1022.4mb 50f 48f
12:24 20 29 mph 1022.4mb 49f 48f
12:18 20 28 mph 1022.4mb 49f 48f
12:12 18 29 mph 1022.3mb 49f 48f
12:06 18 26 mph 1022.3mb 49f 48f
12:00 18 28 mph 1022.2mb 49f 48f
11:36 16 29 mph 1022.3mb 49f 48f
11:30 20 28 mph 1022.3mb 49f 48f
11:24 21 28 mph 1022.1mb 49f 48f
11:18 20 28 mph 1022.2mb 49f 48f
11:12 18 28 mph 1022.3mb 49f 48f
11:06 17 28 mph 1022.2mb 49f 48f
11:00 20 30 mph 1022.3mb 49f 48f
10:36 18 26 mph 1022.2mb 49f 48f
10:30 18 26 mph 1022.3mb 49f 48f
10:24 20 28 mph 1022.3mb 49f 49f
10:18 20 26 mph 1022.4mb 49f 49f
10:12 20 29 mph 1022.4mb 49f 49f
10:06 20 30 mph 1022.3mb 49f 49f
10:00 20 28 mph 1022.3mb 49f 49f
9:36 18 28 mph 1022.4mb 49f 49f
9:30 21 29 mph 1022.5mb 49f 49f
9:24 18 31 mph 1022.4mb 49f 49f
9:18 18 28 mph 1022.4mb 49f 49f
9:12 17 26 mph 1022.4mb 49f 49f
9:06 18 28 mph 1022.5mb 49f 48f
9:00 15 22 mph 1022.4mb 49f 48f
8:36 18 26 mph 1022.3mb 49f 48f
8:30 15 23 mph 1022.2mb 49f 48f
8:24 21 28 mph 1022.2mb 49f 48f
8:18 20 26 mph 1022.2mb 49f 48f
8:12 18 28 mph 1022.2mb 49f 48f
8:06 18 25 mph 1022.2mb 49f 48f
8:00 16 25 mph 1022.1mb 49f 48f
7:36 18 25 mph 1022.1mb 49f 48f
7:30 18 24 mph - - 48f
7:24 16 23 mph - - 48f
7:18 18 28 mph - - 48f
7:12 20 26 mph 1021.8mb 49f 48f
7:06 16 24 mph 1021.7mb 49f 48f
7:00 20 26 mph 1021.7mb 49f 48f
6:36 20 26 mph 1021.7mb 49f 48f
6:30 17 25 mph 1021.7mb 49f 48f
6:24 21 26 mph - - 48f
6:18 20 29 mph - - 48f
6:12 17 28 mph 1021.5mb 49f 48f
6:06 22 26 mph 1021.6mb 49f 48f
6:00 22 28 mph 1021.6mb 49f 48f
5:36 21 28 mph 1021.4mb 49f 48f
5:30 21 30 mph 1021.4mb 49f 48f
5:24 20 26 mph 1021.4mb 49f 48f
5:18 21 25 mph 1021.6mb 49f 48f
5:12 20 26 mph 1021.6mb 49f 48f
5:06 17 25 mph 1021.7mb 49f 48f
5:00 21 29 mph 1021.7mb 49f 48f
4:36 21 26 mph 1022.2mb 49f 48f
4:30 20 25 mph 1022.3mb 49f 48f
4:24 18 28 mph 1022.4mb 49f 48f
4:18 17 29 mph 1022.5mb 49f 48f
4:12 21 29 mph 1022.6mb 49f 48f
4:06 18 26 mph 1022.6mb 49f 48f
4:00 21 29 mph 1022.5mb 49f 48f
3:36 21 30 mph 1022.3mb 49f 48f
3:30 17 28 mph 1022.3mb 49f 48f
3:24 20 29 mph 1022.3mb 49f 48f
3:18 21 30 mph 1022.4mb 49f 48f
3:12 22 30 mph 1022.5mb 49f 48f
3:06 20 28 mph 1022.4mb 49f 48f
3:00 20 29 mph 1022.4mb 49f 47f
2:36 17 28 mph 1022.6mb 49f 47f
2:30 20 29 mph 1022.7mb 49f 48f
2:24 20 28 mph 1022.7mb 49f 48f
2:18 18 25 mph 1022.8mb 49f 48f
2:12 17 26 mph 1022.9mb 49f 48f
2:06 18 26 mph 1022.9mb 49f 47f
2:00 18 29 mph 1023mb 49f 47f
1:36 17 24 mph 1023.4mb 49f 47f
1:30 17 24 mph 1023.4mb 49f 47f
1:24 15 22 mph 1023.4mb 49f 47f
1:18 16 25 mph 1023.4mb 49f 47f
1:12 15 24 mph 1023.5mb 49f 47f
1:06 15 21 mph 1023.5mb 49f 47f
1:00 16 24 mph 1023.6mb 49f 46f
12:36 16 23 mph 1024mb 49f 46f
12:30 16 22 mph 1024mb 49f 46f
12:24 15 23 mph 1024.1mb 49f 46f
12:18 18 23 mph 1024mb 49f 45f
12:12 14 24 mph 1024mb 49f 46f
12:06 16 23 mph 1024mb 49f 46f
12:00 16 23 mph 1024.1mb 49f 45f
Seg 03/27 11:36 17 25 mph 1024.3mb 49f 46f
11:30 18 26 mph 1024.3mb 50f 46f
11:24 18 25 mph 1024.4mb 50f 46f
11:18 18 23 mph 1024.2mb 50f 46f
11:12 16 21 mph 1024.2mb 50f 46f
11:06 17 23 mph 1024.3mb 50f 46f
11:00 18 24 mph 1024.4mb 50f 46f
10:36 20 25 mph 1024.2mb 50f 46f
10:30 20 24 mph 1024.2mb 50f 46f
10:24 17 24 mph 1024.2mb 50f 46f
10:18 18 25 mph 1024.3mb 50f 46f
10:12 20 25 mph 1024.3mb 50f 46f
10:06 20 26 mph 1024.3mb 50f 46f
10:00 22 29 mph 1024.3mb 50f 46f
9:36 14 20 mph 1023.9mb 50f 46f
9:30 16 21 mph 1023.9mb 50f 46f
9:24 17 22 mph 1024mb 50f 46f
9:18 18 23 mph 1024.1mb 50f 46f
9:12 17 22 mph 1023.9mb 50f 46f
9:06 15 21 mph 1024mb 50f 46f
9:00 14 18 mph 1024.1mb 50f 46f
8:36 14 18 mph 1024mb 50f 45f
8:30 16 21 mph 1024mb 50f 45f
8:24 14 18 mph 1023.9mb 50f 45f
8:18 15 20 mph 1024mb 50f 45f
8:12 14 18 mph 1023.9mb 50f 46f
8:06 15 18 mph 1024mb 50f 46f
8:00 16 21 mph 1024.1mb 50f 46f
7:36 14 20 mph 1024.1mb 50f 45f
7:30 15 20 mph 1024mb 49f 45f
7:24 13 18 mph 1023.9mb 50f 45f
7:18 14 18 mph 1023.9mb 49f 45f
7:12 15 18 mph 1023.9mb 49f 45f
7:06 16 21 mph 1023.9mb 49f 45f
7:00 16 21 mph 1023.8mb 49f 46f
6:54 15 23 mph 1023.8mb 49f 46f
6:48 20 23 mph 1023.7mb 49f 46f
6:36 17 21 mph 1023.7mb 49f 46f
6:30 20 23 mph 1023.7mb 49f 46f
6:24 18 23 mph 1023.6mb 49f 46f
6:18 18 24 mph 1023.5mb 49f 46f
6:12 21 24 mph 1023.4mb 49f 46f
6:06 20 23 mph 1023.3mb 49f 46f
6:00 21 24 mph 1023.3mb 49f 46f
5:54 20 22 mph 1023.5mb 49f 45f
5:48 21 23 mph 1023.5mb 49f 45f
5:36 21 23 mph 1023.3mb 50f 46f
5:30 16 22 mph 1023.3mb 50f 46f
5:24 16 22 mph 1023.3mb 50f 46f
5:18 20 22 mph 1023.1mb 50f 47f
5:12 14 18 mph 1023.1mb 50f 46f
5:06 13 16 mph 1022.9mb 50f 46f
5:00 14 17 mph 1022.9mb 50f 46f
4:54 15 20 mph 1022.9mb 50f 45f
4:48 17 22 mph 1023mb 50f 46f
4:36 13 16 mph 1022.7mb 50f 47f
4:30 15 17 mph 1022.8mb 50f 46f
4:24 16 20 mph 1022.7mb 50f 46f
4:18 16 21 mph 1022.7mb 50f 46f
4:12 14 20 mph 1022.8mb 50f 46f
4:06 17 23 mph 1022.7mb 50f 46f
4:00 14 21 mph 1022.7mb 50f 47f
3:54 15 18 mph 1022.7mb 50f 47f
3:48 15 18 mph 1022.7mb 50f 47f
3:36 15 18 mph 1022.8mb 50f 47f
3:30 14 18 mph 1022.8mb 50f 47f
3:24 16 21 mph 1022.7mb 49f 46f
3:18 18 23 mph 1022.6mb 49f 47f
3:12 22 25 mph 1022.6mb 49f 46f
3:06 18 24 mph 1022.5mb 49f 48f
3:00 18 23 mph 1022.6mb 49f 48f
2:54 17 21 mph 1022.6mb 49f 47f
2:48 21 26 mph 1022.5mb 49f 46f
2:36 21 24 mph 1022.2mb 49f 48f
2:30 16 24 mph 1022.1mb 49f 48f
2:24 20 25 mph 1022mb 49f 48f
2:18 17 23 mph 1022mb 49f 48f
2:12 16 21 mph 1021.8mb 49f 48f
2:06 16 22 mph 1021.6mb 49f 48f
2:00 20 25 mph 1021.5mb 49f 48f
1:54 18 22 mph 1021.4mb 49f 48f
1:48 16 24 mph 1021.2mb 49f 48f
1:36 17 21 mph 1021mb 49f 49f
1:30 16 22 mph 1020.9mb 49f 48f
1:24 14 18 mph 1020.9mb 49f 48f
1:18 13 21 mph 1020.9mb 49f 47f
1:12 16 20 mph 1020.9mb 49f 47f
1:06 18 25 mph 1020.8mb 49f 47f
1:00 15 21 mph 1020.6mb 49f 48f
12:54 18 21 mph 1020.7mb 49f 48f
12:48 16 21 mph 1020.6mb 49f 48f
12:36 15 18 mph 1020.4mb 49f 47f
12:30 20 24 mph 1020.2mb 49f 46f
12:24 17 24 mph 1020mb 49f 49f
12:18 18 21 mph 1020.2mb 49f 49f
12:12 15 18 mph 1020mb 49f 49f
12:06 15 18 mph 1020.1mb 49f 48f
12:00 14 17 mph 1020.2mb 49f 47f
11:54 14 16 mph 1020mb 49f 47f
11:48 14 16 mph 1019.8mb 49f 47f
11:36 16 24 mph 1019.5mb 49f 46f
11:30 22 25 mph 1019.2mb 49f 46f
11:24 18 22 mph 1019.1mb 49f 48f
11:18 18 21 mph 1019mb 49f 48f
11:12 17 22 mph 1019mb 49f 48f
11:06 13 16 mph 1018.8mb 49f 47f
11:00 17 22 mph 1018.7mb 49f 47f
10:54 16 21 mph 1018.5mb 49f 48f
10:48 16 20 mph 1018.5mb 49f 48f
10:36 16 20 mph 1018.2mb 49f 48f
10:30 14 17 mph 1018mb 49f 48f
10:24 16 18 mph 1017.8mb 49f 47f
10:18 14 17 mph 1017.7mb 49f 48f
10:12 13 16 mph 1017.6mb 49f 48f
10:06 11 16 mph 1017.5mb 49f 48f
10:00 15 17 mph 1017.3mb 49f 48f
9:54 16 18 mph 1017.3mb 49f 47f
9:48 15 18 mph 1017.1mb 49f 47f
9:36 13 16 mph 1017.1mb 49f 46f
9:30 11 17 mph 1017mb 49f 47f
9:24 14 16 mph 1017mb 49f 47f
9:18 14 17 mph 1016.9mb 49f 47f
9:12 15 20 mph 1016.8mb 49f 47f
9:06 14 18 mph 1016.7mb 49f 48f
9:00 13 17 mph 1016.6mb 49f 47f
8:54 10 13 mph 1016.6mb 49f 46f
8:48 8 16 mph 1016.6mb 49f 45f
8:36 16 22 mph 1016.3mb 49f 47f
8:30 13 15 mph 1016.1mb 49f 47f
8:24 13 15 mph 1016mb 49f 47f
8:18 14 17 mph 1015.8mb 49f 47f
8:12 14 16 mph 1015.6mb 49f 47f
8:06 11 15 mph 1015.4mb 49f 47f
8:00 10 15 mph 1015.3mb 49f 47f
7:54 10 14 mph 1015.3mb 49f 46f
7:48 11 14 mph 1015.1mb 49f 46f
7:36 15 20 mph 1014.8mb 49f 46f
7:30 14 17 mph 1014.8mb 49f 46f
7:24 11 15 mph 1014.8mb 49f 47f
7:18 14 16 mph 1014.9mb 49f 47f
7:12 13 15 mph 1014.8mb 49f 46f
7:06 14 16 mph 1014.7mb 49f 47f
7:00 15 18 mph 1014.7mb 49f 47f
6:54 14 16 mph 1014.6mb 49f 47f
6:48 16 18 mph 1014.5mb 49f 47f
6:36 9 11 mph 1014.3mb 49f 46f
6:30 10 14 mph 1014.2mb 49f 46f
6:24 11 15 mph 1014.1mb 49f 45f
6:18 13 22 mph 1014mb 49f 45f
6:12 21 25 mph 1013.9mb 49f 45f
6:06 15 18 mph 1013.8mb 49f 47f
6:00 13 16 mph 1013.7mb 49f 47f
5:54 14 17 mph 1013.6mb 49f 47f
5:48 16 18 mph 1013.6mb 49f 46f
5:36 13 16 mph 1013.4mb 49f 47f
5:30 13 17 mph 1013.2mb 49f 47f
5:24 13 16 mph 1013.1mb 49f 47f
5:18 11 16 mph 1012.9mb 49f 47f
5:12 13 16 mph 1012.8mb 49f 47f
5:06 15 18 mph 1012.8mb 49f 47f
5:00 14 20 mph 1012.7mb 49f 47f
4:54 13 18 mph 1012.6mb 49f 47f
4:48 14 18 mph 1012.5mb 49f 47f
4:36 11 17 mph 1012.4mb 49f 46f
4:30 11 18 mph 1012.3mb 49f 46f
4:24 13 21 mph 1012.2mb 49f 46f
4:18 17 22 mph 1012.1mb 49f 46f
4:12 11 18 mph 1012.1mb 49f 46f
4:06 10 15 mph 1012mb 49f 45f
4:00 10 15 mph 1012mb 49f 45f
3:54 10 14 mph 1011.9mb 49f 45f
3:48 11 15 mph 1011.8mb 49f 45f
3:36 10 14 mph 1011.8mb 49f 45f
3:30 10 15 mph 1011.7mb 49f 45f
3:24 11 14 mph 1011.6mb 49f 45f
3:18 9 15 mph 1011.6mb 49f 46f
3:12 11 16 mph 1011.5mb 49f 46f
3:06 10 15 mph 1011.5mb 49f 46f
3:00 9 14 mph 1011.5mb 49f 46f
2:54 11 15 mph 1011.5mb 49f 46f
2:48 10 15 mph 1011.5mb 49f 45f
2:36 11 15 mph 1011.5mb 49f 46f
2:30 10 18 mph 1011.5mb 49f 46f
2:24 13 18 mph 1011.5mb 49f 46f
2:18 14 20 mph 1011.4mb 49f 46f
2:12 14 20 mph 1011.3mb 49f 47f
2:06 14 20 mph 1011.3mb 49f 46f
2:00 14 18 mph 1011.2mb 49f 46f
1:54 15 22 mph 1011.1mb 49f 46f
1:48 17 23 mph 1011.2mb 49f 46f
1:36 15 20 mph 1011mb 49f 48f
1:30 14 20 mph 1010.9mb 49f 48f
1:24 14 20 mph 1010.9mb 49f 48f
1:18 14 18 mph 1010.8mb 49f 48f
1:12 15 20 mph 1010.8mb 49f 48f
1:06 14 17 mph 1010.7mb 49f 48f
1:00 13 17 mph 1010.7mb 49f 48f
12:54 16 20 mph 1010.7mb 49f 48f
12:48 14 18 mph 1010.6mb 49f 48f
12:36 14 21 mph 1010.6mb 49f 48f
12:30 16 21 mph 1010.6mb 49f 48f
12:24 14 18 mph 1010.6mb 49f 48f
12:18 11 17 mph 1010.6mb 49f 48f
12:12 14 17 mph 1010.5mb 49f 48f
12:06 13 21 mph 1010.5mb 49f 48f
12:00 15 20 mph 1010.4mb 49f 48f
Dom 03/26 11:36 13 18 mph 1010.3mb 49f 48f
11:30 15 20 mph 1010.3mb 49f 48f
11:24 14 20 mph 1010.2mb 49f 47f
11:18 17 22 mph 1010.1mb 49f 48f
11:12 14 20 mph 1010.1mb 49f 48f
11:06 14 17 mph 1010.1mb 49f 48f
11:00 15 20 mph 1010mb 49f 48f
10:54 14 20 mph 1009.9mb 49f 48f
10:48 15 18 mph 1009.8mb 49f 47f
10:36 16 20 mph 1009.6mb 49f 47f
10:30 15 20 mph 1009.6mb 49f 48f
10:24 13 18 mph 1009.5mb 49f 48f
10:18 14 17 mph 1009.5mb 49f 48f
10:12 16 22 mph 1009.4mb 49f 48f
10:06 14 20 mph 1009.4mb 49f 48f
10:00 11 16 mph 1009.3mb 49f 48f
9:54 11 16 mph 1009.2mb 49f 48f
9:48 10 13 mph 1009.2mb 49f 47f
9:36 13 16 mph 1009.1mb 49f 47f
9:30 13 17 mph 1009mb 49f 47f
9:24 16 22 mph 1009.1mb 49f 48f
9:18 11 16 mph 1009mb 49f 48f
9:12 11 15 mph 1008.9mb 49f 48f
9:06 10 14 mph 1008.9mb 49f 48f
9:00 11 16 mph 1008.9mb 49f 48f
8:54 11 15 mph 1008.8mb 49f 48f
8:48 13 18 mph 1008.7mb 49f 48f
8:36 13 16 mph 1008.6mb 49f 48f
8:30 10 15 mph 1008.6mb 49f 48f
8:24 13 15 mph 1008.6mb 49f 48f
8:18 11 15 mph 1008.5mb 49f 48f
8:12 11 14 mph 1008.5mb 49f 48f
8:06 13 15 mph 1008.5mb 49f 48f
8:00 13 16 mph 1008.4mb 49f 48f
7:54 10 14 mph 1008.4mb 49f 48f
7:48 11 14 mph 1008.3mb 49f 48f
7:36 11 15 mph 1008.2mb 49f 48f
7:30 11 14 mph 1008.1mb 49f 48f
7:24 11 15 mph 1008.1mb 49f 48f
7:18 13 16 mph 1008.1mb 49f 48f
7:12 14 16 mph 1008mb 49f 48f
7:06 15 17 mph 1008mb 49f 48f
7:00 15 18 mph 1008mb 49f 48f
6:54 15 20 mph 1007.9mb 49f 48f
6:48 13 16 mph 1007.8mb 49f 48f
6:36 15 17 mph 1007.6mb 49f 48f
6:30 13 15 mph 1007.6mb 49f 48f
6:24 11 17 mph 1007.6mb 49f 48f
6:18 14 16 mph 1007.6mb 49f 48f
6:12 11 16 mph 1007.5mb 49f 48f
6:06 14 16 mph 1007.4mb 49f 48f
6:00 13 15 mph 1007.2mb 49f 48f
5:54 13 15 mph 1007.1mb 49f 48f
5:48 13 16 mph 1007.1mb 49f 47f
5:36 15 17 mph 1007.1mb 49f 47f
5:30 18 22 mph 1006.9mb 49f 47f
5:24 11 13 mph 1006.9mb 49f 48f
5:18 11 13 mph 1006.7mb 49f 48f
5:12 11 13 mph 1006.7mb 49f 48f
5:06 13 17 mph 1006.5mb 49f 47f
5:00 13 17 mph 1006.3mb 49f 48f
4:54 15 17 mph 1006.3mb 49f 48f
4:48 16 18 mph 1006.2mb 49f 48f
4:36 13 18 mph 1006mb 49f 48f
4:30 16 18 mph 1006mb 49f 47f
4:24 18 23 mph 1005.9mb 49f 47f
4:18 18 22 mph 1005.8mb 49f 47f
4:12 18 21 mph 1005.7mb 49f 47f
4:06 18 23 mph 1005.6mb 49f 47f
4:00 16 20 mph 1005.6mb 49f 47f
3:54 16 21 mph 1005.6mb 49f 47f
3:48 9 15 mph 1005.5mb 49f 47f
3:36 9 16 mph 1005.4mb 49f 47f
3:30 10 17 mph 1005.3mb 49f 47f
3:24 8 17 mph 1005.3mb 49f 46f
3:18 11 17 mph 1005.3mb 49f 46f
3:12 11 15 mph 1005.3mb 49f 46f
3:06 10 15 mph 1005.3mb 49f 46f
3:00 10 16 mph 1005.3mb 49f 46f
2:36 13 17 mph 1005.4mb 49f 45f
2:30 13 17 mph 1005.4mb 49f 45f
2:24 13 16 mph 1005.5mb 49f 45f
2:18 13 17 mph 1005.5mb 49f 45f
2:12 13 15 mph 1005.6mb 49f 45f
2:06 11 15 mph 1005.6mb 49f 45f
2:00 11 15 mph 1005.6mb 49f 44f
1:54 11 14 mph 1005.7mb 49f 44f
1:48 10 14 mph 1005.7mb 49f 44f
1:36 10 16 mph 1005.7mb 49f 44f
1:30 10 15 mph 1005.7mb 49f 44f
1:24 11 15 mph 1005.8mb 49f 44f
1:18 11 15 mph 1005.8mb 49f 44f
1:12 11 15 mph 1005.8mb 49f 44f
1:06 11 16 mph 1005.8mb 49f 44f
1:00 10 15 mph 1005.9mb 49f 44f
12:54 10 15 mph 1005.9mb 49f 44f
12:48 9 16 mph 1005.9mb 49f 44f
12:36 11 15 mph 1005.9mb 49f 44f
12:30 13 17 mph 1006mb 49f 44f
12:24 10 15 mph 1006mb 49f 44f
12:18 10 15 mph 1006.1mb 49f 44f
12:12 13 17 mph 1006.1mb 49f 44f
12:06 14 17 mph 1006.2mb 49f 44f
12:00 13 16 mph 1006.2mb 49f 44f
11:54 11 17 mph 1006.3mb 49f 44f
11:48 11 16 mph 1006.4mb 49f 44f
11:36 11 18 mph 1006.4mb 49f 43f
11:30 11 15 mph 1006.4mb 49f 43f
11:24 11 17 mph 1006.4mb 49f 43f
11:18 13 16 mph 1006.5mb 49f 43f
11:12 10 15 mph 1006.5mb 49f 43f
11:06 11 17 mph 1006.5mb 49f 43f
11:00 11 15 mph 1006.5mb 49f 43f
10:54 13 20 mph 1006.5mb 49f 43f
10:48 14 18 mph 1006.5mb 49f 43f
10:36 15 20 mph 1006.5mb 49f 43f
10:30 17 23 mph 1006.5mb 49f 43f
10:24 15 23 mph 1006.5mb 49f 43f
10:18 17 22 mph 1006.6mb 49f 42f
10:12 14 18 mph 1006.7mb 49f 42f
10:06 14 17 mph 1006.9mb 49f 42f
10:00 14 17 mph 1007mb 49f 42f
9:54 11 17 mph 1007.1mb 49f 42f
9:48 11 15 mph 1007.2mb 49f 42f
9:36 11 15 mph 1007.2mb 49f 42f
9:30 9 16 mph 1007.3mb 49f 42f
9:24 9 14 mph 1007.3mb 49f 42f
9:18 11 16 mph 1007.3mb 49f 42f
9:12 11 16 mph 1007.3mb 49f 42f
9:06 13 20 mph 1007.4mb 49f 42f
9:00 13 17 mph 1007.5mb 49f 42f
8:54 10 15 mph 1007.6mb 49f 42f
8:48 10 15 mph 1007.7mb 49f 42f
8:36 10 15 mph 1007.8mb 49f 42f
8:30 11 15 mph 1008mb 49f 42f
8:24 13 18 mph 1008.1mb 49f 42f
8:18 14 17 mph 1008.1mb 49f 42f
8:12 14 20 mph 1008.2mb 49f 42f
8:06 13 17 mph 1008.2mb 49f 42f
8:00 10 15 mph 1008.3mb 49f 42f
7:54 11 15 mph 1008.3mb 49f 42f
7:48 10 16 mph 1008.4mb 49f 42f
7:36 10 15 mph 1008.4mb 49f 42f
7:30 11 16 mph 1008.5mb 49f 42f
7:24 13 18 mph 1008.6mb 49f 42f
7:18 10 15 mph 1008.7mb 49f 42f
7:12 11 15 mph 1008.7mb 49f 42f
7:06 11 15 mph 1008.7mb 49f 42f
7:00 10 16 mph 1008.8mb 49f 42f
6:54 10 15 mph 1008.9mb 49f 42f
6:48 9 16 mph 1008.9mb 49f 42f
6:36 13 16 mph 1009.1mb 49f 42f
6:30 13 17 mph 1009.2mb 49f 42f
6:24 10 16 mph 1009.3mb 49f 42f
6:18 13 16 mph 1009.4mb 49f 42f
6:12 13 16 mph 1009.4mb 49f 42f
6:06 13 18 mph 1009.5mb 49f 42f
6:00 11 14 mph 1009.6mb 49f 42f
5:54 11 15 mph 1009.6mb 49f 42f
5:48 10 15 mph 1009.7mb 49f 42f
5:36 9 14 mph 1009.9mb 49f 42f
5:30 10 14 mph 1009.9mb 49f 42f
5:24 10 13 mph 1009.9mb 49f 42f
5:18 10 15 mph 1010mb 49f 42f
5:12 10 14 mph 1010mb 49f 42f
5:06 11 15 mph 1010.1mb 49f 42f
5:00 13 15 mph 1010.2mb 49f 42f
4:36 11 14 mph 1010.7mb 49f 42f
4:30 10 13 mph 1010.9mb 49f 42f
4:24 10 13 mph 1011mb 49f 42f
4:18 10 13 mph 1011.2mb 49f 42f
4:12 9 13 mph 1011.4mb 49f 43f
4:06 10 13 mph 1011.5mb 49f 43f
4:00 9 13 mph 1011.7mb 49f 43f
3:54 10 13 mph 1011.7mb 49f 43f
3:48 10 13 mph 1011.8mb 49f 43f
3:36 9 11 mph 1012.1mb 49f 42f
3:30 9 11 mph 1012.2mb 49f 42f
3:24 9 11 mph 1012.4mb 49f 42f
3:18 9 13 mph 1012.5mb 49f 43f
3:12 9 14 mph 1012.6mb 49f 43f
3:06 10 13 mph 1012.6mb 49f 43f
3:00 10 11 mph 1012.8mb 49f 42f
2:54 9 10 mph 1012.9mb 49f 43f
2:48 9 11 mph 1013mb 49f 43f
2:36 9 11 mph 1013.4mb 49f 43f
2:30 8 9 mph 1013.5mb 49f 43f
2:24 8 10 mph 1013.5mb 49f 43f
2:18 8 10 mph 1013.4mb 49f 43f
2:12 8 10 mph 1013.5mb 49f 42f
2:06 9 10 mph 1013.6mb 49f 42f
2:00 9 11 mph 1013.7mb 49f 42f
1:54 9 11 mph 1013.7mb 49f 42f
1:48 9 10 mph 1013.8mb 49f 42f
1:36 8 9 mph 1014.2mb 49f 42f
1:30 7 8 mph 1014.3mb 49f 42f
1:24 7 8 mph 1014.3mb 49f 42f
1:18 9 10 mph 1014.4mb 49f 42f
1:12 9 10 mph 1014.5mb 49f 42f
1:06 7 10 mph 1014.5mb 49f 42f
1:00 8 10 mph 1014.7mb 49f 42f
12:54 8 10 mph 1014.8mb 49f 43f
12:48 7 10 mph 1015mb 49f 43f
12:36 8 9 mph 1015.1mb 49f 43f
12:30 8 10 mph 1015.1mb 49f 43f
12:24 8 9 mph 1015.2mb 49f 43f
12:18 7 8 mph 1015.2mb 49f 43f
12:12 7 9 mph 1015.3mb 49f 43f
12:06 8 9 mph 1015.5mb 49f 43f
12:00 8 9 mph 1015.4mb 49f 43f
Sáb 03/25 11:54 7 9 mph 1015.4mb 49f 43f
11:48 7 10 mph 1015.4mb 49f 43f
11:36 9 11 mph 1015.4mb 49f 43f
11:30 7 9 mph 1015.6mb 49f 43f
11:24 7 9 mph 1015.8mb 49f 43f
11:18 6 8 mph 1015.9mb 49f 43f
11:12 7 9 mph 1016.1mb 49f 43f
11:06 7 9 mph 1016.2mb 49f 43f
11:00 6 8 mph 1016.2mb 49f 43f
10:54 6 8 mph 1016.3mb 49f 43f
10:48 6 8 mph 1016.3mb 49f 43f
10:36 7 9 mph 1016.2mb 49f 43f
10:30 8 9 mph 1016.2mb 49f 43f
10:24 8 9 mph 1016.3mb 49f 43f
10:18 7
mph
1016.4mb 49f 43f
10:12 5 6 mph 1016.5mb 50f 43f
10:06 5 7 mph 1016.4mb 50f 43f
10:00 6 8 mph 1016.3mb 50f 43f
9:54 6 7 mph 1016.4mb 50f 43f
9:48 7 8 mph 1016.4mb 50f 43f
9:36 6 8 mph 1016.5mb 50f 43f
9:30 6 7 mph 1016.5mb 50f 44f
9:24 7 9 mph 1016.6mb 50f 44f
9:18 7 9 mph 1016.8mb 50f 44f
9:12 7 8 mph 1016.9mb 50f 44f
9:06 6 7 mph 1017mb 50f 44f
9:00 5 7 mph 1017.1mb 50f 44f
8:54 6 7 mph 1017.3mb 50f 44f
8:48 6 7 mph 1017.3mb 50f 44f
8:36 7
mph
1017.5mb 50f 45f
8:30 6 7 mph 1017.5mb 50f 45f
8:24 6
mph
1017.5mb 50f 45f
8:18 5 6 mph 1017.6mb 50f 45f
8:12 5 6 mph 1017.7mb 50f 45f
8:06 5 6 mph 1017.6mb 50f 45f
8:00 5
mph
1017.7mb 50f 46f
7:54 3 5 mph 1017.8mb 50f 46f
7:48 3 5 mph 1017.7mb 50f 46f
7:36 5 7 mph 1017.8mb 50f 45f
7:30 6 7 mph 1017.9mb 50f 46f
7:24 6 8 mph 1018.1mb 50f 46f
7:18 6 7 mph 1018.3mb 50f 46f
7:12 6 8 mph 1018.4mb 49f 46f
7:06 5 8 mph 1018.5mb 49f 46f
7:00 5 7 mph 1018.5mb 49f 46f
6:54 6 7 mph 1018.5mb 49f 46f
6:48 6
mph
1018.4mb 49f 46f
6:36 5 6 mph 1018.5mb 49f 46f
6:30 5 7 mph 1018.5mb 49f 46f
6:24 6 7 mph 1018.7mb 49f 47f
6:18 6 7 mph 1018.7mb 49f 46f
6:12 6 8 mph 1018.8mb 49f 46f
6:06 6 8 mph 1018.8mb 49f 47f
6:00 7 8 mph 1018.8mb 49f 46f
5:54 7 9 mph 1019mb 49f 46f
5:48 7 10 mph 1019mb 49f 47f
5:36 6 9 mph 1019.2mb 49f 47f
5:30 6 9 mph 1019.3mb 49f 47f
5:24 9 10 mph 1019.4mb 49f 47f
5:18 11 13 mph 1019.5mb 49f 47f
5:12 8 9 mph 1019.6mb 49f 47f
5:06 9 11 mph 1019.6mb 49f 47f
5:00 9 10 mph 1019.6mb 49f 47f
4:54 8 9 mph 1019.6mb 49f 47f
4:48 7 10 mph 1019.6mb 49f 47f
4:36 9 10 mph 1019.7mb 49f 47f
4:30 9 11 mph 1019.7mb 49f 47f
4:24 10 13 mph 1019.8mb 49f 47f
4:18 10 14 mph 1019.9mb 49f 47f
4:12 10 14 mph 1019.9mb 49f 47f
4:06 9 14 mph 1019.9mb 49f 47f
4:00 11 15 mph 1019.9mb 49f 47f
3:54 9 13 mph 1020mb 49f 47f
3:48 10 13 mph 1020mb 49f 47f
3:36 10 15 mph 1020.1mb 50f 47f
3:30 10 14 mph 1020.1mb 50f 47f
3:24 11 15 mph 1020.1mb 50f 47f
3:18 11 16 mph 1020.1mb 50f 47f
3:12 10 14 mph 1020.2mb 50f 47f
3:06 10 14 mph 1020.2mb 50f 47f
3:00 11 14 mph 1020.2mb 50f 47f
2:54 10 13 mph 1020.2mb 50f 47f
2:48 10 13 mph 1020.3mb 50f 47f
2:36 10 14 mph 1020.3mb 49f 47f
2:30 11 15 mph 1020.3mb 49f 47f
2:24 10 13 mph 1020.3mb 49f 48f
2:18 10 13 mph 1020.4mb 49f 47f
2:12 8 11 mph 1020.4mb 49f 48f
2:06 9 13 mph 1020.4mb 49f 48f
2:00 8 11 mph 1020.5mb 49f 47f
1:54 9 14 mph 1020.5mb 49f 47f
1:48 9 13 mph 1020.5mb 49f 47f
1:36 10 14 mph 1020.5mb 49f 47f
1:30 10 13 mph 1020.5mb 49f 47f
1:24 8 13 mph 1020.4mb 49f 48f
1:18 9 11 mph 1020.4mb 49f 47f
1:12 9 13 mph 1020.5mb 49f 47f
1:06 9 13 mph 1020.5mb 49f 47f
1:00 8 10 mph 1020.4mb 49f 47f
12:54 9 10 mph 1020.4mb 49f 47f
12:48 9 13 mph 1020.5mb 49f 47f
12:36 9 14 mph 1020.4mb 49f 47f
12:30 9 13 mph 1020.5mb 49f 47f
12:24 10 13 mph 1020.4mb 49f 47f
12:18 10 11 mph 1020.4mb 49f 46f
12:12 10 14 mph 1020.4mb 49f 47f
12:06 10 13 mph 1020.4mb 49f 46f
12:00 11 14 mph 1020.3mb 49f 46f
11:54 10 14 mph 1020.3mb 49f 47f
11:48 11 14 mph 1020.3mb 49f 47f
11:36 14
mph
1020.4mb 49f 46f
11:30 15 16 mph 1020.3mb 49f 46f
11:24 10 13 mph 1020.3mb 49f 47f
11:18 7 10 mph 1020.3mb 49f 47f
11:12 8 10 mph 1020.3mb 49f 46f
11:06 8 10 mph 1020.2mb 49f 46f
11:00 9 10 mph 1020.2mb 49f 46f
10:54 9 11 mph 1020.2mb 49f 47f
10:48 10 11 mph 1020.2mb 49f 46f
10:36 10 13 mph 1020.1mb 49f 46f
10:30 8 9 mph 1020.1mb 49f 47f
10:24 8 11 mph 1020mb 49f 47f
10:18 9 10 mph 1019.9mb 49f 46f
10:12 8 10 mph 1020mb 49f 47f
10:06 8 10 mph 1020mb 49f 47f
10:00 9 11 mph 1020mb 49f 46f
9:54 9 11 mph 1019.9mb 49f 46f
9:48 9 10 mph 1019.9mb 49f 46f
9:36 8 9 mph 1019.8mb 49f 46f
9:30 7 8 mph 1019.7mb 49f 46f
9:24 6 7 mph 1019.6mb 49f 46f
9:18 6 7 mph 1019.7mb 49f 46f
9:12 7 9 mph 1019.6mb 49f 46f
9:06 7 9 mph 1019.5mb 49f 46f
9:00 3 6 mph 1019.6mb 49f 45f
8:54 2 6 mph 1019.5mb 49f 45f
8:48 3 6 mph 1019.5mb 49f 44f
8:36 6 7 mph 1019.3mb 49f 44f
8:30 3 5 mph 1019.4mb 49f 44f
8:24 2 3 mph 1019.3mb 49f 44f
8:18 2 3 mph 1019.3mb 49f 44f
8:12  -  1 mph 1019.3mb 49f 44f
8:06 2 3 mph 1019.2mb 49f 44f
8:00 3 5 mph 1019.1mb 49f 44f
7:36 7 11 mph 1018.8mb 49f 45f
7:30 7 8 mph 1018.9mb 49f 45f
7:24 6 7 mph 1018.9mb 49f 45f
7:18 7 8 mph 1018.8mb 49f 45f
7:12 6 8 mph 1018.8mb 49f 45f
7:06 7 9 mph 1018.9mb 49f 45f
7:00 8 9 mph 1018.9mb 49f 45f
6:54 9 13 mph 1019mb 49f 45f
6:48 13 14 mph 1019mb 49f 45f
6:36 15 16 mph 1018.9mb 49f 45f
6:30 11 14 mph 1018.8mb 49f 46f
6:24 13 14 mph 1018.8mb 49f 46f
6:18 8 11 mph 1018.7mb 49f 45f
6:12 8 10 mph 1018.7mb 49f 45f
6:06 9 13 mph 1018.7mb 49f 45f
6:00 13 15 mph 1018.7mb 49f 45f
5:54 11 17 mph 1018.6mb 49f 45f
5:48 17 23 mph 1018.5mb 49f 45f
5:36 16 21 mph 1018.5mb 49f 43f
5:30 21 25 mph 1018.5mb 49f 43f
5:24 14 22 mph 1018.4mb 49f 47f
5:18 10 11 mph 1018.4mb 49f 46f
5:12 10 11 mph 1018.4mb 49f 47f
5:06 9 13 mph 1018.3mb 49f 46f
5:00 10 11 mph 1018.3mb 49f 46f
4:54 9 11 mph 1018.2mb 49f 47f
4:48 10 11 mph 1018.2mb 49f 47f
4:36 9 13 mph 1018.2mb 49f 47f
4:30 10 13 mph 1018.1mb 49f 47f
4:24 10 14 mph 1018.1mb 49f 46f
4:18 14 15 mph 1018mb 49f 46f
4:12 10 13 mph 1018mb 49f 46f
4:06 8 9 mph 1018.1mb 49f 45f
4:00 9 10 mph 1018.1mb 49f 46f
3:54 8 10 mph 1018.1mb 49f 45f
3:48 9 10 mph 1018mb 49f 46f
3:36 13 18 mph 1018mb 49f 46f
3:30 16 18 mph 1017.9mb 49f 46f
3:24 16 17 mph 1017.9mb 49f 46f